Location: Barcelona
(41.3830°N, 2.1830°E)
Time: 08:42:04
(UTC+02:00)

ISS - Pass Details

Date: 24 July 2017
Orbit: 400 x 408 km, 51.6° (Epoch: 21 July)

Event Time Altitude Azimuth Distance (km) Brightness Sun altitude
Rises 02:34:04 0° 306° (NW) 2,313 0.3 -28.2°
Reaches altitude 10° 02:36:51 10° 332° (NNW) 1,454 -0.4 -28.1°
Maximum altitude 02:38:45 15° 8° (N) 1,213 -0.6 -28.0°
Drops below altitude 10° 02:40:40 10° 44° (NE) 1,455 -0.3 -28.0°
Sets 02:43:27 0° 70° (ENE) 2,315 0.4 -27.8°
